Location: Bailey Inglish Elementary School
(33.5826°N, 96.1780°W)
Time: 23:27:06
(UTC+00:00)

BlueWalker 3 - Pass Details

Date: 30 June 2024
Orbit: 480 x 491 km, 53.2° (Epoch: 21 July)

Event Time Altitude Azimuth Distance (km) Brightness Sun altitude
Rises 05:55:46 0° 324° (NW) 2,536 6.4 -32.7°
Reaches altitude 10° 05:58:06 10° 335° (NNW) 1,654 5.3 -32.8°
Enters shadow 05:58:42 14° 339° (NNW) 1,443 5.0 -32.8°
